Location: Chateh
(58.6667°N, 118.6000°W)
Time: 17:03:52
(UTC+00:00)

Gurwin Techsat 1B - Pass Details

Date: 06 December 2023
Orbit: 810 x 813 km, 98.9° (Epoch: 21 February)

Event Time Altitude Azimuth Distance (km) Brightness Sun altitude
Rises 11:12:45 0° 18° (NNE) 3,353 12.3 -38.6°
Reaches altitude 10° 11:15:09 10° 23° (NNE) 2,417 11.5 -38.3°
Enters shadow 11:16:48 20° 29° (NNE) 1,800 10.8 -38.1°
